Lapse_Rate
7.1 7.1 7.1 7.1 6.9 7.7 7.2 6.6 6.6 6.3 6.2 6.0 6.0 5.9 6.1 6.0 6.0 6.0 6.0 5.9 5.7 5.9 5.8 5.7 5.6 5.5 5.3 5.1 5.0 5.1 5.3 5.3 5.1 5.1 5.2 5.2 5.1 5.2 5.2 5.1 5.1 5.1 5.3 5.4 5.3 5.4 5.3 5.3 5.4
7.1 7.2 7.1 7.0 8.7 7.8 7.1 6.9 6.5 6.4 6.2 6.0 6.2 6.0 6.0 6.2 6.4 6.1 6.1 5.9 5.8 5.7 5.8 5.7 5.7 5.5 5.2 5.1 5.1 5.2 5.3 5.2 5.1 5.2 5.4 5.4 5.3 5.3 5.1 5.2 5.3 5.4 5.5 5.4 5.4 5.6 5.5 5.5 5.5
7.3 7.3 7.1 6.9 7.6 7.3 7.1 6.8 6.4 6.1 5.9 5.8 6.1 5.9 6.1 6.3 6.2 6.0 5.8 6.0 5.9 5.7 5.7 5.7 5.8 5.5 5.5 5.5 5.1 5.1 5.0 5.2 5.3 5.3 5.4 5.2 5.6 5.3 5.3 5.2 5.2 5.4 5.5 5.5 5.5 5.8 5.7 5.6 5.6
7.4 7.3 7.1 7.7 7.4 7.0 6.9 6.5 6.2 6.2 6.2 6.3 6.0 6.2 6.3 6.2 6.1 6.0 5.9 5.9 5.9 5.7 5.5 5.6 5.7 5.7 5.7 5.5 5.1 5.0 5.0 5.4 5.2 5.3 5.3 5.4 5.4 5.3 5.4 5.2 5.1 5.4 5.4 5.5 5.7 5.8 5.8 5.7 5.7
7.3 7.0 8.0 7.5 7.1 6.8 6.8 6.6 6.3 6.3 6.1 5.9 6.0 6.4 6.3 6.2 6.0 5.9 6.0 5.9 5.9 5.8 5.8 5.7 5.7 5.7 5.6 5.4 5.3 5.4 5.3 5.3 5.4 5.4 5.3 5.5 5.3 5.2 5.3 5.3 5.4 5.4 5.3 5.5 5.6 5.8 5.7 5.7 5.7
7.1 7.5 8.5 8.0 7.4 6.9 6.6 6.3 6.3 6.3 6.4 6.3 6.4 6.4 6.3 5.9 6.2 5.9 5.8 5.8 5.8 5.9 5.7 5.6 5.6 5.6 5.5 5.4 5.3 5.4 5.3 5.3 5.5 5.4 5.4 5.3 5.3 5.4 5.5 5.4 5.4 5.3 5.3 5.4 5.6 5.7 5.6 5.7 5.7
7.1 9.0 8.2 8.3 7.6 7.5 6.8 6.4 6.5 6.3 6.1 6.1 6.3 5.9 6.4 6.1 6.0 6.2 5.9 5.9 5.7 5.9 5.7 5.6 5.5 5.5 5.4 5.4 5.4 5.2 5.2 5.4 5.4 5.6 5.3 5.2 5.2 5.2 5.3 5.3 5.3 5.2 5.3 5.4 5.4 5.5 5.6 5.6 5.7
7.5 8.3 9.3 8.2 8.0 7.7 7.1 6.7 6.5 6.4 6.5 6.7 6.2 6.0 6.4 6.4 6.2 6.1 6.0 6.0 5.9 5.9 5.9 5.8 5.6 5.6 5.5 5.6 5.4 5.2 5.1 5.2 5.4 5.4 5.2 5.0 5.2 5.2 5.1 5.2 5.1 5.2 5.3 5.3 5.3 5.4 5.6 5.5 5.4
8.0 9.3 9.3 8.4 8.5 7.8 7.5 7.1 6.9 6.7 6.6 6.2 6.5 6.0 6.5 6.5 6.4 6.2 6.2 6.0 6.1 6.1 6.1 6.0 5.9 5.7 5.6 5.4 5.3 5.2 5.1 5.2 5.2 5.3 5.1 5.0 5.1 5.1 5.1 5.1 5.1 5.1 5.2 5.3 5.4 5.4 5.4 5.4 5.3
7.8 9.1 8.5 8.2 8.3 7.8 7.4 6.9 7.1 6.9 6.8 6.7 6.7 6.8 6.7 6.5 6.5 6.3 6.2 6.1 6.1 6.1 6.1 6.0 6.0 5.9 5.6 5.5 5.3 5.3 5.2 5.2 5.2 5.1 5.1 5.2 5.2 5.1 5.2 5.1 5.1 5.1 5.3 5.4 5.4 5.4 5.4 5.2 5.0
8.4 8.5 8.4 8.3 8.2 8.0 7.5 7.2 7.1 6.7 6.7 6.7 7.0 6.9 6.7 6.5 6.4 6.3 6.1 6.0 6.1 6.1 6.1 5.9 5.8 5.9 5.7 5.7 5.6 5.4 5.5 5.4 5.2 5.1 5.3 5.3 5.2 5.1 5.2 5.2 5.1 5.3 5.4 5.5 5.3 5.3 5.3 5.2 5.2
8.7 8.6 8.2 8.2 8.2 8.1 7.6 7.5 7.2 7.1 7.1 7.2 7.2 6.9 6.8 6.4 6.4 6.4 6.3 6.3 6.3 6.2 6.1 6.0 5.9 5.8 6.0 5.9 5.8 5.7 5.7 5.6 5.4 5.3 5.4 5.4 5.4 5.2 5.3 5.3 5.3 5.4 5.4 5.3 5.3 5.2 5.0 5.0 5.2
8.8 8.7 8.5 8.3 8.1 8.2 8.0 7.6 7.4 7.4 7.5 7.6 7.5 7.0 6.7 6.6 6.4 6.4 6.5 6.4 6.4 6.3 6.1 6.1 6.0 6.0 5.9 5.9 5.8 5.8 5.6 5.5 5.4 5.3 5.1 5.1 5.2 5.2 5.2 5.2 5.5 5.5 5.4 5.4 5.2 5.0 5.0 5.1 5.1
8.7 8.5 8.6 8.4 8.2 8.2 7.9 7.7 7.6 7.6 7.6 7.4 7.6 7.3 6.6 6.6 6.5 6.3 6.4 6.6 6.5 6.2 6.1 6.2 6.1 6.1 6.0 5.9 5.8 5.8 5.8 5.7 5.5 5.3 5.1 5.3 5.2 5.1 5.1 5.3 5.4 5.5 5.4 5.2 5.2 5.1 5.1 5.1 5.0
8.4 8.5 8.5 8.4 8.2 7.9 8.0 8.0 7.7 7.8 7.8 7.5 7.7 7.6 6.9 6.4 6.5 6.3 6.2 6.2 6.2 6.2 6.3 6.3 6.3 6.3 6.2 6.1 5.8 5.8 5.7 5.7 5.4 5.2 5.2 5.3 5.3 5.3 5.3 5.3 5.4 5.2 5.2 5.2 5.3 5.4 5.2 5.0 5.2
8.5 8.7 9.4 8.5 8.1 8.1 7.8 8.6 8.1 8.0 7.7 7.7 7.8 7.8 7.6 6.8 6.4 6.5 6.3 6.1 5.9 6.1 6.2 6.2 6.1 6.2 6.2 6.1 6.0 5.9 5.9 5.7 5.6 5.5 5.5 5.3 5.3 5.2 5.3 5.4 5.3 5.3 5.4 5.4 5.5 5.3 5.2 5.3 5.2
8.7 9.5 9.4 8.9 8.3 7.9 7.9 8.2 8.3 8.1 8.0 7.9 7.9 7.8 7.9 7.5 6.7 6.5 6.6 6.3 6.0 5.8 5.9 6.0 6.0 6.1 5.9 5.9 5.8 5.8 5.9 5.9 5.8 5.7 5.6 5.6 5.4 5.4 5.4 5.5 5.5 5.7 5.6 5.6 5.6 5.6 5.5 5.4 5.4
9.5 9.5 9.2 9.0 8.5 8.5 8.3 8.3 8.4 8.4 8.3 8.2 7.9 7.8 7.8 7.8 7.5 6.8 6.7 6.5 6.1 6.0 5.7 5.7 5.8 5.8 5.9 5.9 5.9 5.9 6.0 6.0 5.8 5.7 5.7 5.7 5.5 5.6 5.6 5.6 5.6 5.9 5.9 5.9 5.8 5.6 5.7 5.7 5.4
8.9 9.5 9.5 8.8 8.2 8.5 8.9 8.6 8.7 8.8 8.8 8.6 8.0 8.1 7.7 7.7 7.6 7.2 6.6 6.6 6.4 5.9 6.1 5.8 5.6 5.5 5.6 5.6 5.6 5.7 5.8 5.8 5.9 5.9 5.9 5.9 6.0 6.0 6.1 5.9 5.8 6.0 5.8 5.7 5.7 5.8 5.8 5.9 5.8
8.8 9.4 9.5 8.8 8.4 8.8 9.0 9.1 8.8 8.8 9.0 8.7 8.5 8.3 8.0 7.5 7.4 7.6 7.3 6.7 6.7 6.3 5.8 5.9 5.7 5.6 5.5 5.4 5.4 5.8 6.0 6.0 6.1 6.2 6.1 6.1 6.0 6.1 6.0 5.8 5.9 5.9 5.9 5.7 5.7 5.8 5.8 5.8 5.8
8.9 9.5 9.5 9.2 8.6 8.8 8.9 9.6 9.2 9.4 9.1 9.1 9.2 8.0 7.7 7.6 7.7 7.4 7.5 7.4 6.9 6.8 6.2 5.7 5.7 5.6 5.4 5.5 5.7 5.9 5.9 5.9 6.1 6.1 6.0 6.0 6.0 5.9 6.0 5.7 5.7 5.8 5.8 5.7 5.7 5.7 5.7 5.7 5.7
9.5 9.3 9.0 8.7 9.0 9.7 8.9 9.6 9.6 9.1 9.2 9.3 9.3 9.1 7.6 8.0 7.6 7.2 7.1 7.4 7.4 7.1 6.5 6.0 5.6 5.6 5.5 5.5 5.7 5.8 5.8 5.8 6.0 6.1 6.0 6.0 6.0 5.9 5.9 5.7 5.8 5.9 6.0 5.8 5.7 5.7 5.7 5.7 5.8
8.8 8.8 8.7 8.4 9.0 9.5 9.6 9.4 9.7 9.7 9.7 9.7 9.3 9.2 8.9 7.9 7.7 7.9 7.2 7.3 7.2 7.1 6.9 6.3 6.0 6.1 5.9 6.0 5.8 5.7 5.8 5.9 6.1 6.2 6.3 6.1 6.0 6.0 6.0 6.0 5.9 5.9 6.0 5.9 5.6 5.5 5.4 5.4 5.7
8.4 7.9 8.5 8.7 9.3 9.7 9.7 9.5 9.7 9.7 9.6 9.3 8.8 8.9 9.0 8.8 8.3 8.2 7.7 7.2 7.2 7.2 7.2 6.5 6.2 6.4 6.4 6.0 6.2 6.2 6.0 6.1 5.9 5.9 6.1 6.1 6.3 6.2 6.1 6.1 6.1 6.0 5.8 5.7 5.6 5.6 5.6 5.4 5.6
7.5 8.4 9.6 9.8 9.9 9.9 9.6 9.2 9.6 9.5 9.4 9.1 9.1 9.0 8.9 8.7 8.4 8.0 7.6 7.6 7.2 7.4 7.5 7.0 6.5 6.3 6.3 6.1 6.1 6.2 6.4 6.3 6.2 6.2 6.3 6.2 6.2 6.3 6.1 6.0 6.2 5.8 5.9 5.9 5.8 5.9 5.6 5.5 5.7
8.1 8.8 9.7 9.5 9.9 10.0 9.2 9.1 9.5 9.1 9.2 8.8 8.9 8.9 8.8 8.7 8.5 8.3 8.1 7.8 7.5 7.5 7.7 7.7 7.2 6.8 6.4 6.4 6.2 6.2 6.4 6.5 6.3 6.1 5.9 6.2 6.4 6.6 6.7 6.1 5.8 6.0 5.7 6.0 6.0 6.1 6.0 5.8 5.7
8.4 8.5 9.6 9.7 9.7 9.7 9.7 9.5 9.3 9.0 8.8 8.8 8.9 8.8 8.7 8.7 8.5 8.2 8.1 8.2 7.7 7.8 7.8 7.6 7.4 6.9 6.7 6.7 6.7 6.3 6.3 6.2 6.1 6.1 6.1 6.3 6.2 6.5 6.9 6.0 5.5 5.4 5.7 5.7 6.0 6.1 6.1 6.0 5.8
8.4 9.4 9.3 9.6 9.7 9.6 9.8 9.6 9.7 9.2 8.5 8.5 8.6 8.7 8.6 8.6 8.5 8.4 8.4 8.2 8.1 7.8 8.2 7.8 7.4 7.2 6.7 6.6 6.8 6.7 6.6 6.5 6.5 6.4 6.0 6.0 6.0 6.0 5.7 5.4 5.0 5.0 5.3 5.5 5.6 6.0 6.2 6.1 6.0
8.5 8.9 9.3 9.7 9.6 9.9 9.9 9.8 9.5 9.0 9.0 9.0 9.0 8.9 8.8 8.6 8.6 8.5 8.3 8.1 8.1 8.1 7.8 7.9 7.6 7.2 6.9 7.0 7.2 7.1 7.0 6.9 6.7 6.6 6.5 6.3 6.2 5.6 5.3 4.8 4.8 4.7 4.9 5.3 5.3 5.7 6.0 6.2 6.2
9.4 9.6 9.7 9.7 9.6 9.6 9.4 9.7 9.5 9.2 9.1 9.1 9.1 9.0 8.9 8.8 8.8 8.7 8.5 8.4 8.2 8.1 7.9 7.8 7.9 7.5 7.5 7.5 7.5 7.4 7.2 7.1 7.1 6.7 6.7 6.5 6.3 5.9 5.3 4.8 4.7 4.8 4.8 5.0 5.0 5.2 5.6 6.0 6.3
Wind_Speed
13 9 3 3 4 8 13 10 10 9 7 4 7 3 12 11 6 11 19 16 18 17 17 15 14 19 17 17 16 16 16 15 14 12 11 11 9 7 8 8 7 7 8 8 8 8 9 9 8
8 6 3 4 3 11 11 9 10 9 5 11 10 6 5 11 10 17 16 19 17 17 19 17 14 15 17 15 16 14 14 13 11 9 9 10 9 7 6 6 6 7 7 9 9 9 10 9 9
6 3 4 1 10 11 11 12 12 9 9 7 5 7 4 5 16 16 19 19 17 15 18 19 14 14 15 13 13 13 10 10 9 7 8 8 8 7 6 6 6 8 8 9 9 10 10 10 10
3 4 4 9 14 11 12 10 9 10 8 3 7 10 9 9 14 11 20 18 16 15 18 19 16 15 13 12 10 11 9 9 8 6 6 7 6 6 7 7 7 8 8 9 9 8 9 10 9
4 4 9 11 13 11 9 8 3 8 7 8 5 10 15 7 9 20 18 16 16 15 19 17 14 14 13 11 10 10 8 7 7 6 6 6 7 6 5 6 7 6 7 8 8 7 8 8 8
4 4 10 12 11 9 7 8 4 12 11 13 18 19 11 11 17 18 16 15 14 13 18 19 15 13 13 11 9 8 8 6 5 5 5 6 6 5 5 5 5 5 6 6 7 6 6 7 7
5 5 8 10 8 8 7 4 7 10 10 12 13 11 8 13 18 16 15 13 13 13 14 16 16 13 13 12 10 8 7 6 4 4 3 4 5 4 3 4 3 4 4 5 5 3 3 4 5
4 5 8 6 8 8 7 4 6 8 12 13 10 6 13 13 17 16 14 13 13 11 12 12 13 13 11 13 8 8 7 5 4 4 3 3 4 4 4 5 4 1 2 2 3 3 3 2 3
2 2 7 9 8 7 9 6 4 3 12 4 3 8 20 20 18 15 14 13 11 10 12 13 14 12 11 10 12 8 7 5 5 6 4 8 1 4 3 7 1 2 2 1 3 5 5 5 9
4 5 5 4 5 7 8 5 8 6 9 7 9 15 21 22 18 17 16 14 14 13 12 11 11 12 10 7 8 6 6 9 3 2 5 1 1 2 4 3 2 3 5 5 4 5 7 10 9
3 5 2 4 5 5 8 6 4 7 5 7 14 21 21 20 17 17 15 14 14 13 10 9 9 10 10 7 8 7 6 5 7 3 3 3 1 2 4 4 4 4 4 2 3 7 13 5 2
4 2 1 4 7 6 8 7 4 2 7 10 16 21 21 19 17 16 15 14 13 13 12 11 10 7 8 8 8 7 5 5 4 5 4 3 5 1 2 3 4 3 3 5 7 6 6 5 3
5 4 2 4 7 7 7 5 4 4 5 14 19 19 20 19 16 14 13 12 12 12 12 12 10 8 8 6 6 5 5 6 6 5 6 3 3 1 3 3 6 4 5 4 5 6 5 5 7
6 2 5 6 7 7 4 5 3 6 11 15 19 20 18 18 16 13 12 13 13 12 13 12 12 11 11 7 6 5 6 5 4 4 4 5 5 2 3 3 4 3 4 4 4 4 4 4 5
0 4 7 6 4 3 3 7 5 13 14 15 18 18 18 18 17 15 14 13 13 12 12 12 12 13 11 9 8 8 7 7 6 5 5 6 6 4 5 2 4 5 4 3 3 3 3 4 4
5 6 5 5 3 4 7 5 10 14 16 16 18 17 18 19 19 16 14 13 13 12 12 12 11 12 12 9 8 7 7 6 5 5 6 7 8 7 5 3 2 1 5 3 3 2 3 3 4
7 4 2 6 0 1 7 8 7 13 15 15 17 18 18 19 18 17 16 14 12 12 12 12 12 12 11 9 8 8 6 7 6 6 5 4 6 7 6 2 1 2 2 2 3 2 4 4 4
7 6 5 1 3 4 8 7 8 13 16 17 17 17 18 20 21 18 18 15 14 12 12 12 11 11 10 7 7 6 6 6 6 5 3 4 5 6 5 1 1 3 3 2 3 4 5 3 4
6 5 5 2 4 7 5 8 7 13 17 17 17 17 18 19 19 19 18 16 15 13 13 13 13 12 9 9 8 7 7 5 5 5 3 5 6 6 4 3 3 3 2 3 2 2 1 2 3
10 10 9 1 2 8 8 9 5 13 18 18 18 18 18 17 18 19 19 17 16 16 15 14 14 14 12 9 8 6 5 5 5 5 5 7 7 6 6 3 3 1 1 1 2 2 3 0 3
14 14 6 6 7 6 9 12 6 5 11 13 18 17 18 18 18 19 20 19 17 16 16 16 16 15 14 13 8 7 5 5 6 6 6 6 7 5 5 5 2 3 2 3 1 2 3 1 1
18 14 6 7 6 8 6 11 7 6 6 13 14 16 18 19 19 18 20 19 18 17 16 16 16 16 14 15 11 12 9 7 6 5 5 5 8 7 6 5 4 2 1 3 3 4 4 5 2
17 3 6 6 9 7 14 7 8 7 6 3 9 12 16 20 21 20 19 19 19 17 15 14 15 16 15 15 13 11 11 7 6 5 5 6 6 7 7 6 6 4 3 4 4 3 4 3 4
10 8 9 8 10 10 15 6 11 4 8 7 3 5 10 17 20 21 19 17 15 15 14 13 15 15 16 15 15 14 11 10 6 4 4 4 4 6 7 8 6 6 5 5 4 4 4 4 4
12 14 11 11 11 12 4 8 10 14 11 10 9 4 4 12 17 19 20 18 16 16 16 15 15 15 15 16 15 15 14 12 10 7 6 5 3 5 8 8 7 7 5 5 5 4 3 4 3
15 18 11 11 12 7 4 7 8 5 9 6 3 3 2 9 12 16 18 16 16 17 17 17 17 15 16 16 16 14 15 10 9 8 7 6 6 7 10 9 8 7 8 6 5 4 3 3 4
11 9 6 10 4 8 9 2 8 4 10 7 7 7 7 7 8 11 14 16 17 17 17 17 17 17 17 17 14 14 13 12 11 11 10 9 9 6 10 9 9 8 8 8 6 4 4 3 2
7 8 9 8 5 7 4 5 3 8 9 8 7 7 8 6 6 7 9 12 14 17 16 17 16 17 17 16 14 13 14 13 11 10 10 8 7 9 10 8 9 8 8 8 6 6 5 4 3
7 10 7 5 5 6 4 4 8 9 7 7 7 4 4 3 5 6 6 8 11 12 13 16 16 15 15 16 15 13 14 15 14 12 11 10 11 12 12 9 7 9 9 7 5 6 6 6 6
9 15 14 7 11 2 7 2 8 9 10 8 8 5 5 1 1 4 5 6 9 11 13 14 14 15 16 16 15 15 15 14 15 14 14 13 13 12 12 12 10 9 8 7 6 7 8 8 7
Wind_Direction
159 170 183 240 213 75 63 72 90 102 122 70 94 45 74 35 12 94 135 131 142 138 135 137 130 123 124 127 128 119 117 118 115 115 116 115 111 110 101 103 103 107 108 112 106 103 116 118 116
148 160 228 273 36 75 74 91 68 60 89 113 102 107 60 75 92 123 132 139 145 142 141 142 133 123 123 125 121 126 126 122 120 125 122 117 125 125 111 107 106 112 114 114 107 98 111 118 116
163 256 290 353 46 46 78 84 95 96 118 143 114 59 50 80 122 135 133 142 142 141 139 127 137 133 129 128 131 131 136 127 119 118 112 118 109 103 106 93 114 121 121 114 104 111 111 112 114
202 208 227 59 72 61 91 108 101 111 109 112 115 90 93 108 128 135 142 146 143 143 137 139 141 137 133 137 146 140 143 135 136 130 123 104 118 113 109 102 110 120 115 103 106 112 116 117 116
222 243 92 77 77 80 77 103 84 99 86 112 153 108 112 115 119 140 147 154 146 144 130 144 143 140 144 152 158 150 151 153 140 150 117 115 128 111 104 110 99 93 98 106 106 113 122 123 125
242 258 61 64 74 86 88 106 81 89 100 101 112 120 98 121 143 149 153 154 153 146 144 140 149 155 159 163 166 164 159 149 146 116 103 112 112 96 95 96 98 103 102 95 99 107 128 131 129
311 13 54 68 81 93 102 109 102 100 113 112 129 122 104 147 146 151 157 156 151 157 140 152 158 165 176 173 180 153 149 155 156 121 111 121 102 108 90 109 99 74 87 121 110 98 117 133 133
301 284 68 54 50 81 118 87 112 94 91 123 142 147 157 160 155 154 157 159 155 158 147 155 156 173 171 163 152 161 155 158 123 115 162 124 168 157 163 199 132 174 164 145 137 166 181 194 174
285 259 65 58 59 105 142 127 109 91 140 94 67 155 133 154 159 159 163 161 158 172 167 170 163 166 181 145 148 172 179 181 180 185 179 212 227 133 177 79 64 289 300 234 207 196 219 213 216
297 3 39 10 66 101 157 157 142 154 141 122 107 111 136 153 164 168 171 167 174 174 179 176 170 158 161 162 145 182 161 154 165 202 176 112 119 96 297 22 231 260 267 265 236 229 229 225 256
40 31 353 52 55 112 146 165 153 139 186 141 144 143 152 160 170 175 177 174 178 174 179 176 172 157 166 168 170 172 170 159 162 176 202 168 258 169 232 209 200 220 196 235 229 263 220 236 278
291 53 345 64 133 133 153 142 154 193 34 132 145 154 157 168 176 179 180 176 176 180 180 181 173 171 186 169 187 166 182 184 197 150 200 181 220 220 307 333 313 274 332 315 268 257 271 264 210
279 31 43 121 145 131 140 149 57 166 95 130 144 158 165 170 174 178 180 176 182 183 184 181 182 182 191 197 181 180 184 190 179 180 185 215 260 271 275 329 315 320 299 288 292 269 288 284 262
337 306 113 143 126 146 157 140 198 127 135 144 155 166 172 172 173 174 185 184 187 190 183 183 189 181 196 203 199 191 199 187 208 200 187 215 271 279 317 305 310 328 290 295 321 328 299 284 285
166 187 142 132 170 139 176 189 212 146 154 159 170 172 175 179 174 181 187 190 187 191 183 188 192 184 193 200 199 209 199 196 210 219 214 236 243 231 290 314 314 313 334 297 272 271 291 289 295
224 245 191 120 204 117 240 358 131 165 167 171 177 179 179 182 185 184 185 192 178 194 191 192 193 193 187 195 198 212 216 221 221 229 233 224 238 249 254 266 352 312 280 292 294 322 288 257 323
212 203 220 141 26 298 241 323 128 181 180 182 185 187 188 189 196 188 191 192 190 188 184 195 197 202 192 193 206 216 208 229 232 238 241 196 226 225 260 280 334 274 282 298 325 321 311 327 306
176 192 190 196 77 285 269 279 149 184 197 193 193 195 197 198 197 194 197 197 195 187 190 195 195 203 195 193 210 218 221 234 235 228 224 188 201 200 238 209 279 260 238 289 356 338 1 329 342
259 245 220 143 68 305 309 293 189 188 200 203 202 199 202 207 199 196 199 198 199 198 194 195 199 193 192 197 205 211 218 219 223 234 205 210 203 194 209 205 183 249 301 13 349 303 191 353 0
221 231 217 270 194 302 327 292 216 184 214 212 210 206 205 204 204 196 195 198 200 199 203 203 202 196 200 198 209 221 222 221 232 223 219 222 203 202 201 206 167 149 123 22 358 330 299 228 23
228 237 231 296 328 231 310 266 145 195 221 225 224 215 212 208 202 195 193 196 200 200 200 205 206 198 200 210 199 197 209 227 221 224 224 206 212 211 207 190 200 159 254 93 17 35 354 346 99
241 208 255 272 297 295 354 302 261 139 222 228 230 226 216 210 204 203 195 194 199 203 200 206 206 204 203 201 202 212 217 225 220 227 207 193 208 206 190 174 171 204 88 97 102 70 23 317 3
246 170 258 274 278 279 271 256 291 262 273 6 205 226 222 210 204 204 201 195 198 198 197 202 204 203 205 202 219 206 227 226 225 221 188 224 183 196 175 167 156 155 175 112 106 101 41 63 345
232 212 227 257 273 270 256 268 289 323 339 325 181 251 242 206 205 198 205 196 198 196 195 196 198 203 199 202 207 219 219 230 227 215 196 201 194 177 169 164 164 163 140 152 126 94 70 41 38
219 229 241 232 234 249 79 275 281 307 322 352 322 335 207 198 197 201 196 199 196 195 193 195 196 200 197 199 204 209 213 207 209 210 188 186 181 207 167 173 176 172 164 148 129 112 96 65 50
213 223 230 227 243 253 127 280 281 11 317 15 23 47 157 178 188 199 200 202 201 200 199 195 191 197 196 199 203 202 206 204 212 204 195 189 191 208 161 179 179 163 166 157 143 140 104 92 85
162 228 274 288 245 271 275 259 261 68 51 64 59 97 118 150 174 191 200 200 203 202 201 201 193 196 196 198 197 199 203 212 206 210 200 193 195 172 173 173 178 176 170 165 156 123 125 104 92
270 178 204 225 273 270 145 246 49 36 39 39 71 91 103 131 162 188 198 211 204 209 197 197 201 198 195 196 198 198 200 201 207 206 206 193 171 178 170 168 177 184 173 164 173 147 120 106 99
186 217 238 319 308 298 246 137 54 39 43 55 65 69 105 136 167 194 196 198 215 209 203 198 200 197 198 199 197 200 196 198 197 200 199 184 179 174 179 165 167 180 180 169 157 112 121 110 99
228 235 218 226 178 244 312 10 59 63 71 63 60 63 71 80 216 181 184 181 193 191 195 197 201 198 201 199 194 195 198 195 194 200 189 181 174 175 177 172 167 169 179 164 154 151 127 127 122